CW1569 Weather Reports


Display with metric or nautical units.
time (UTC)temp
F
wind
direction
speed
MPH
gust
MPH
rain 1hr
in
rain 24hr
in
rain mn
in
humidity
%
barometer
mb
20260901055846 76 211 1.0 4.0 0.00 0.22 0.22 90 1010.7
20260901055331 77 360 2.0 4.0 0.00 0.22 0.22 89 1010.6
20260901054841 77 360 3.0 5.0 0.00 0.22 0.22 89 1010.6
20260901054332 77 360 3.0 5.0 0.00 0.22 0.22 90 1010.7
20260901053840 77 211 3.0 5.0 0.00 0.22 0.22 90 1010.7
20260901053330 77 360 4.0 5.0 0.00 0.22 0.22 90 1010.6
20260901052839 77 212 4.0 5.0 0.00 0.22 0.22 90 1010.6
20260901052329 77 212 4.0 6.0 0.00 0.22 0.22 90 1010.7
20260901051838 77 360 4.0 6.0 0.00 0.22 0.22 90 1010.7
20260901051347 77 212 4.0 6.0 0.00 0.22 0.22 90 1010.8
20260901050854 77 211 3.0 6.0 0.00 0.22 0.22 90 1010.7
20260901050343 77 360 4.0 6.0 0.00 0.22 0.22 90 1010.7
20260901045823 77 360 4.0 6.0 0.00 0.22 0.22 91 1010.8
20260901045332 76 360 4.0 5.0 0.00 0.22 0.22 91 1010.8
20260901044823 76 360 3.0 4.0 0.00 0.22 0.22 91 1010.7
20260901044335 77 211 3.0 4.0 0.00 0.22 0.22 91 1010.8
20260901043845 77 360 3.0 4.0 0.00 0.22 0.22 91 1010.8
20260901043354 77 360 3.0 4.0 0.00 0.22 0.22 90 1010.8
20260901042822 77 360 3.0 4.0 0.00 0.22 0.22 90 1010.7
20260901042332 77 209 1.0 4.0 0.00 0.22 0.22 90 1010.7
20260901041837 77 360 1.0 4.0 0.00 0.22 0.22 90 1010.8
20260901041349 77 208 2.0 4.0 0.00 0.22 0.22 90 1010.8
20260901040836 77 360 1.0 5.0 0.00 0.22 0.22 90 1010.7
20260901040325 77 360 3.0 6.0 0.00 0.22 0.22 90 1010.8
20260901035835 77 209 3.0 6.0 0.00 0.22 0.22 90 1010.8
20260901035346 77 360 4.0 6.0 0.00 0.22 0.22 90 1010.8
20260901034855 77 208 4.0 5.0 0.01 0.22 0.22 90 1010.8
20260901034324 77 360 2.0 4.0 0.01 0.22 0.22 90 1010.8
20260901033900 78 360 2.0 4.0 0.01 0.22 0.22 89 1010.8
20260901033348 78 360 2.0 5.0 0.01 0.22 0.22 89 1010.9
20260901032837 78 360 3.0 5.0 0.01 0.22 0.22 89 1011.0
20260901032328 78 209 3.0 5.0 0.01 0.22 0.22 89 1011.0
20260901031839 78 206 3.0 5.0 0.01 0.22 0.22 89 1010.9
20260901031328 78 360 3.0 5.0 0.01 0.22 0.22 88 1011.0
20260901030835 78 360 2.0 4.0 0.01 0.22 0.22 88 1010.9
20260901030326 78 360 3.0 6.0 0.01 0.22 0.22 88 1010.9
20260901025836 78 203 4.0 6.0 0.01 0.22 0.22 88 1011.0
20260901025326 78 360 3.0 6.0 0.01 0.22 0.22 88 1011.0
20260901024830 78 360 3.0 5.0 0.00 0.21 0.21 88 1011.1
20260901024340 78 360 2.0 5.0 0.00 0.21 0.21 87 1011.0
20260901023829 79 212 3.0 4.0 0.00 0.21 0.21 87 1010.9
20260901023339 79 212 2.0 5.0 0.00 0.21 0.21 87 1010.9
20260901022848 79 360 4.0 6.0 0.00 0.21 0.21 87 1011.0
20260901022335 79 360 4.0 6.0 0.00 0.21 0.21 86 1011.1
20260901021826 79 211 5.0 6.0 0.00 0.21 0.21 86 1011.2
20260901021338 79 360 4.0 5.0 0.00 0.21 0.21 86 1011.1
20260901020846 79 360 3.0 6.0 0.00 0.21 0.21 86 1011.0
20260901020353 79 360 4.0 6.0 0.00 0.21 0.21 86 1011.1
20260901015823 79 360 3.0 5.0 0.00 0.21 0.21 86 1011.1
20260901015333 79 360 2.0 5.0 0.00 0.21 0.21 85 1011.0
20260901014822 79 360 2.0 4.0 0.00 0.21 0.21 85 1011.0
20260901014334 80 360 1.0 8.0 0.00 0.21 0.21 85 1010.9
20260901013821 80 360 4.0 8.0 0.00 0.21 0.21 85 1010.7
20260901013359 80 360 2.0 6.0 0.00 0.21 0.21 85 1010.7
20260901012830 80 360 3.0 3.0 0.00 0.21 0.21 85 1010.8
20260901012340 80 360 2.0 3.0 0.00 0.21 0.21 85 1010.9
20260901011829 80 360 1.0 6.0 0.00 0.21 0.21 85 1010.8
20260901011337 80 360 2.0 6.0 0.00 0.21 0.21 85 1010.7
20260901010846 80 360 2.0 4.0 0.00 0.21 0.21 85 1010.5
20260901010334 80 360 2.0 5.0 0.00 0.21 0.21 85 1010.8
20260901005843 80 360 2.0 6.0 0.00 0.21 0.21 84 1010.7
20260901005354 80 360 2.0 6.0 0.00 0.21 0.21 84 1010.8
20260901004824 80 169 2.0 5.0 0.00 0.22 0.21 84 1010.7
20260901004335 80 360 1.0 5.0 0.01 0.22 0.21 84 1010.6
20260901003824 80 360 3.0 5.0 0.01 0.22 0.21 84 1010.5
20260901003332 81 360 1.0 4.0 0.01 0.22 0.21 84 1010.5
20260901002838 81 360 1.0 5.0 0.01 0.22 0.21 84 1010.4
20260901002328 81 360 2.0 7.0 0.01 0.22 0.21 84 1010.2
20260901001839 81 360 3.0 7.0 0.01 0.22 0.21 83 1010.3
20260901001348 81 360 3.0 7.0 0.01 0.22 0.21 83 1010.3
20260901000854 81 360 4.0 7.0 0.01 0.22 0.21 83 1010.1
20260901000323 81 360 3.0 5.0 0.01 0.22 0.21 83 1010.1
20260831235834 81 360 2.0 4.0 0.01 0.22 0.21 83 1010.0
20260831235345 81 360 1.0 4.0 0.01 0.22 0.21 83 1010.1
20260831234828 81 360 1.0 4.0 0.01 0.23 0.21 83 1010.1
20260831234340 82 173 0.0 5.0 0.00 0.22 0.20 83 1010.1
20260831233829 82 173 1.0 5.0 0.00 0.22 0.20 83 1010.2
20260831233338 82 360 2.0 5.0 0.00 0.22 0.20 83 1010.2
20260831232829 82 360 2.0 5.0 0.00 0.22 0.20 83 1010.3
20260831232339 82 360 3.0 5.0 0.00 0.22 0.20 83 1010.3
20260831231828 82 360 3.0 6.0 0.00 0.22 0.20 83 1010.4
20260831231340 82 360 3.0 6.0 0.00 0.22 0.20 83 1010.3
20260831230826 82 360 3.0 6.0 0.01 0.22 0.20 83 1010.3
20260831230336 82 206 2.0 6.0 0.01 0.22 0.20 83 1010.2
20260831225827 82 360 2.0 6.0 0.01 0.22 0.20 82 1010.2
20260831225337 83 360 3.0 8.0 0.01 0.22 0.20 82 1010.1
20260831224847 83 209 4.0 9.0 0.01 0.23 0.20 82 1010.3
20260831224400 83 209 4.0 10.0 0.01 0.23 0.20 81 1010.2
20260831223825 83 360 4.0 11.0 0.01 0.23 0.20 82 1010.1
20260831223335 83 360 8.0 13.0 0.01 0.23 0.20 81 1010.1
20260831222825 83 360 5.0 13.0 0.01 0.23 0.20 82 1010.0
20260831222334 83 360 10.0 12.0 0.01 0.23 0.20 81 1010.1
20260831221843 83 360 5.0 14.0 0.01 0.23 0.20 83 1010.0
20260831221357 82 360 7.0 14.0 0.01 0.23 0.20 81 1010.0
20260831220824 82 209 4.0 11.0 0.00 0.22 0.19 83 1009.9
20260831220335 82 212 5.0 10.0 0.00 0.22 0.19 84 1009.8
20260831215847 81 360 4.0 10.0 0.00 0.22 0.19 85 1009.8
20260831215334 80 360 4.0 8.0 0.00 0.22 0.19 87 1010.0
20260831214844 80 360 3.0 8.0 0.01 0.24 0.19 88 1009.9
20260831214333 79 192 5.0 8.0 0.01 0.24 0.19 88 1009.9
20260831213839 79 360 4.0 8.0 0.01 0.24 0.19 88 1009.9
20260831213330 78 360 3.0 5.0 0.01 0.24 0.19 89 1010.0
20260831212840 78 360 2.0 7.0 0.01 0.24 0.19 88 1010.1
20260831212328 78 360 2.0 8.0 0.01 0.24 0.19 88 1010.0
20260831211837 78 360 3.0 8.0 0.01 0.24 0.19 88 1010.0
20260831211330 78 360 4.0 10.0 0.01 0.24 0.19 88 1010.0
20260831210904 78 186 3.0 10.0 0.01 0.24 0.19 88 1009.8
20260831210354 77 214 4.0 13.0 0.01 0.24 0.19 90 1009.7
20260831205841 77 360 5.0 13.0 0.01 0.24 0.19 91 1009.4
20260831205330 76 360 3.0 9.0 0.01 0.24 0.19 90 1009.0
20260831204836 76 360 5.0 9.0 0.00 0.27 0.18 89 1008.6
20260831204324 76 360 1.0 7.0 0.00 0.27 0.18 88 1009.1
20260831203832 76 207 4.0 15.0 0.00 0.27 0.18 87 1009.7
20260831203340 77 360 5.0 15.0 0.00 0.27 0.18 87 1009.9
20260831202829 77 360 6.0 13.0 0.01 0.27 0.18 87 1009.3
20260831202339 77 360 7.0 13.0 0.01 0.27 0.18 86 1009.5
20260831201848 77 360 5.0 8.0 0.01 0.27 0.18 85 1010.0
20260831201359 78 360 4.0 7.0 0.01 0.27 0.18 84 1010.2
20260831200826 78 360 3.0 12.0 0.01 0.27 0.18 83 1010.6
20260831200333 79 208 4.0 14.0 0.01 0.27 0.18 81 1010.6
20260831195822 79 360 8.0 14.0 0.01 0.27 0.18 79 1010.7
20260831195332 80 209 6.0 13.0 0.01 0.27 0.18 77 1010.7
20260831194842 80 198 7.0 13.0 0.01 0.34 0.18 76 1010.4
20260831194331 81 360 5.0 11.0 0.01 0.34 0.18 76 1010.2
20260831193839 81 360 6.0 12.0 0.01 0.34 0.18 75 1010.2
20260831193326 81 195 8.0 13.0 0.01 0.34 0.18 74 1010.3
20260831192835 81 360 9.0 14.0 0.01 0.33 0.17 73 1010.2
20260831192325 82 360 6.0 18.0 0.01 0.33 0.17 72 1010.2
20260831191858 82 360 6.0 19.0 0.01 0.33 0.17 71 1010.3
20260831191328 83 207 5.0 13.0 0.01 0.33 0.17 70 1010.2
20260831190838 83 174 5.0 12.0 0.01 0.33 0.17 71 1010.1
20260831190346 83 360 7.0 12.0 0.01 0.33 0.17 70 1010.1
20260831185835 83 360 6.0 19.0 0.01 0.33 0.17 68 1010.0
20260831185344 84 360 6.0 21.0 0.01 0.33 0.17 68 1010.3
20260831184852 84 360 14.0 21.0 0.02 0.35 0.17 64 1010.4
20260831184409 85 360 10.0 21.0 0.02 0.35 0.17 65 1010.4
20260831183856 85 360 12.0 21.0 0.02 0.35 0.17 65 1010.4
20260831183323 85 196 8.0 15.0 0.02 0.35 0.17 65 1010.4
20260831182831 85 360 8.0 16.0 0.01 0.34 0.16 65 1010.3
20260831182342 85 360 10.0 16.0 0.01 0.34 0.16 64 1010.2
20260831181851 85 360 5.0 16.0 0.01 0.34 0.16 67 1010.2
20260831181340 84 360 10.0 16.0 0.01 0.34 0.16 65 1010.2
20260831180825 84 204 6.0 18.0 0.01 0.34 0.16 68 1010.3
20260831180330 84 360 11.0 18.0 0.01 0.34 0.16 66 1010.3
20260831175840 83 360 7.0 14.0 0.02 0.34 0.16 68 1010.3
20260831175329 83 360 7.0 13.0 0.02 0.34 0.16 69 1010.3
20260831174838 82 360 6.0 16.0 0.01 0.33 0.15 70 1010.3
20260831174347 81 204 10.0 16.0 0.01 0.33 0.15 69 1010.3
20260831173855 81 165 6.0 13.0 0.01 0.33 0.15 70 1010.3
20260831173322 81 360 6.0 15.0 0.01 0.33 0.15 70 1010.4
20260831172831 81 360 6.0 17.0 0.01 0.33 0.15 69 1010.5
20260831172341 81 360 6.0 17.0 0.01 0.33 0.15 68 1010.5
20260831171830 81 360 6.0 17.0 0.02 0.33 0.15 69 1010.5
20260831171342 81 360 8.0 13.0 0.02 0.33 0.15 69 1010.6
20260831170829 81 360 7.0 13.0 0.02 0.33 0.15 69 1010.7
20260831170338 81 190 5.0 14.0 0.02 0.33 0.15 70 1010.9
20260831165848 81 159 8.0 14.0 0.01 0.32 0.14 70 1010.9
20260831165356 80 360 6.0 16.0 0.01 0.32 0.14 70 1011.0
20260831164844 80 360 9.0 16.0 0.01 0.32 0.14 70 1011.1
20260831164334 80 360 7.0 14.0 0.02 0.32 0.14 71 1010.9
20260831163823 79 360 7.0 14.0 0.02 0.32 0.14 72 1011.1
20260831163328 79 360 9.0 14.0 0.02 0.32 0.14 72 1011.1
20260831162836 79 360 6.0 18.0 0.02 0.32 0.14 72 1011.3
20260831162324 79 360 12.0 18.0 0.02 0.32 0.14 71 1011.3
20260831161831 79 360 8.0 19.0 0.01 0.31 0.13 73 1011.3
20260831161341 78 360 7.0 19.0 0.01 0.31 0.13 73 1011.3
20260831160847 78 360 8.0 16.0 0.02 0.31 0.13 74 1011.3
20260831160354 78 360 7.0 13.0 0.02 0.31 0.13 77 1011.4
20260831155843 77 360 4.0 13.0 0.02 0.31 0.13 79 1011.4
20260831155356 77 360 6.0 13.0 0.02 0.31 0.13 80 1011.4
20260831154845 76 360 6.0 14.0 0.02 0.31 0.13 79 1011.3
20260831154333 76 360 10.0 14.0 0.01 0.30 0.12 81 1011.3
20260831153839 75 360 6.0 14.0 0.01 0.30 0.12 82 1011.3
20260831153327 75 360 7.0 14.0 0.02 0.30 0.12 83 1011.4
20260831152836 74 360 5.0 13.0 0.02 0.30 0.12 84 1011.3
20260831152326 74 360 5.0 13.0 0.02 0.30 0.12 85 1011.4
20260831151830 74 360 5.0 14.0 0.02 0.30 0.12 84 1011.4
20260831151339 74 360 8.0 14.0 0.02 0.30 0.12 85 1011.5
20260831150825 73 360 6.0 14.0 0.01 0.29 0.11 86 1011.5
20260831150335 73 360 9.0 15.0 0.02 0.29 0.11 86 1011.5
20260831145825 73 360 9.0 15.0 0.02 0.29 0.11 87 1011.5
20260831145334 73 360 5.0 12.0 0.02 0.29 0.11 87 1011.6
20260831144824 73 360 7.0 12.0 0.02 0.29 0.11 87 1011.5
20260831144333 73 360 7.0 15.0 0.02 0.29 0.11 87 1011.5
20260831143841 73 360 8.0 16.0 0.03 0.29 0.11 87 1011.5
20260831143331 73 360 8.0 16.0 0.02 0.28 0.10 87 1011.4
20260831142839 72 360 8.0 17.0 0.02 0.28 0.10 88 1011.3
20260831142331 72 360 6.0 17.0 0.02 0.28 0.10 88 1011.3
20260831141840 72 360 5.0 14.0 0.03 0.28 0.10 89 1011.3
20260831141331 72 360 9.0 13.0 0.03 0.28 0.10 89 1011.4
20260831140838 72 360 9.0 13.0 0.03 0.28 0.10 90 1011.4
20260831140326 72 360 7.0 15.0 0.02 0.27 0.09 90 1011.5
20260831135835 71 360 6.0 15.0 0.02 0.27 0.09 91 1011.4
20260831135325 71 360 6.0 16.0 0.03 0.27 0.09 91 1011.6
20260831134839 71 360 7.0 16.0 0.03 0.30 0.09 91 1011.8
20260831134348 71 360 7.0 14.0 0.03 0.30 0.09 91 1011.7
20260831133830 70 360 7.0 13.0 0.03 0.30 0.09 91 1011.7
20260831133339 70 360 8.0 13.0 0.03 0.29 0.08 91 1011.7
20260831132828 70 360 7.0 9.0 0.03 0.29 0.08 91 1011.6
20260831132336 70 360 6.0 11.0 0.03 0.29 0.08 91 1011.7
20260831131847 70 360 4.0 11.0 0.02 0.28 0.07 91 1012.2
20260831131333 70 360 6.0 10.0 0.03 0.28 0.07 90 1012.2
20260831130841 71 360 5.0 9.0 0.03 0.28 0.07 91 1012.2
20260831130329 71 360 5.0 9.0 0.03 0.28 0.07 91 1012.2
20260831125906 70 360 5.0 10.0 0.04 0.28 0.07 90 1012.1
20260831125352 70 360 4.0 10.0 0.03 0.27 0.06 91 1012.2
20260831124841 70 360 4.0 8.0 0.03 0.33 0.06 91 1011.9
20260831124331 70 360 3.0 8.0 0.03 0.33 0.06 91 1011.9
20260831123839 70 360 5.0 7.0 0.04 0.33 0.06 91 1011.8
20260831123327 70 360 5.0 7.0 0.03 0.32 0.05 91 1011.8
20260831122837 70 360 3.0 6.0 0.04 0.32 0.05 91 1011.7
20260831122329 70 360 4.0 6.0 0.04 0.32 0.05 90 1011.6
20260831121837 71 360 4.0 6.0 0.04 0.32 0.05 90 1011.7
20260831121327 71 360 2.0 7.0 0.04 0.31 0.04 90 1011.8
20260831120857 70 360 4.0 7.0 0.04 0.31 0.04 90 1011.7
20260831120326 70 360 4.0 8.0 0.04 0.31 0.04 90 1011.6
20260831115834 70 360 5.0 10.0 0.03 0.30 0.03 90 1011.7
20260831115324 70 360 5.0 10.0 0.03 0.30 0.03 90 1011.5
20260831114834 71 360 5.0 11.0 0.03 0.31 0.03 89 1011.7
20260831114345 71 360 7.0 12.0 0.03 0.31 0.03 90 1011.5
20260831113852 70 360 5.0 12.0 0.02 0.30 0.02 90 1011.6
20260831113341 70 169 6.0 12.0 0.02 0.30 0.02 90 1011.6
20260831112849 70 360 5.0 10.0 0.01 0.29 0.01 89 1011.7
20260831112336 71 360 5.0 11.0 0.01 0.29 0.01 88 1012.1
20260831111827 71 360 8.0 13.0 0.01 0.29 0.01 88 1012.0
20260831111337 71 217 9.0 13.0 0.00 0.28 0.00 88 1012.1
20260831110843 71 360 5.0 11.0 0.00 0.28 0.00 87 1012.0
20260831110352 72 360 6.0 13.0 0.00 0.28 0.00 86 1012.2
20260831105820 72 360 5.0 10.0 0.00 0.28 0.00 84 1012.1
20260831105330 72 360 3.0 6.0 0.00 0.28 0.00 83 1011.9
20260831104835 72 360 2.0 5.0 0.00 0.28 0.00 83 1011.7
20260831104324 73 360 2.0 4.0 0.00 0.28 0.00 83 1011.6
20260831103832 73 233 2.0 5.0 0.00 0.28 0.28 82 1011.4
20260831103342 73 360 2.0 6.0 0.00 0.28 0.28 82 1011.0
20260831102836 73 196 5.0 7.0 0.00 0.28 0.28 82 1010.9
20260831102325 73 360 4.0 7.0 0.00 0.28 0.28 82 1010.8
20260831101834 73 360 4.0 6.0 0.00 0.28 0.28 83 1010.9
20260831101324 73 188 4.0 5.0 0.00 0.28 0.28 83 1010.8
20260831100832 73 186 0.0 5.0 0.00 0.28 0.28 84 1010.7
20260831100343 73 186 3.0 5.0 0.00 0.28 0.28 84 1010.7
20260831095857 73 360 3.0 8.0 0.00 0.28 0.28 84 1010.6
20260831095346 73 360 4.0 8.0 0.00 0.28 0.28 85 1010.7
20260831094834 73 360 4.0 8.0 0.00 0.28 0.28 85 1010.6
20260831094344 73 360 5.0 8.0 0.00 0.28 0.28 85 1010.7
20260831093854 73 360 4.0 8.0 0.00 0.28 0.28 85 1010.8
20260831093322 73 360 4.0 8.0 0.00 0.28 0.28 85 1010.7
20260831092832 73 360 3.0 8.0 0.00 0.28 0.28 85 1010.7
20260831092321 73 360 4.0 7.0 0.00 0.28 0.28 86 1010.7
20260831091831 73 360 4.0 7.0 0.00 0.28 0.28 86 1010.7
20260831091339 73 360 3.0 7.0 0.00 0.28 0.28 86 1010.6
20260831090827 73 360 4.0 7.0 0.00 0.28 0.28 87 1010.7
20260831090336 73 360 4.0 8.0 0.00 0.28 0.28 87 1010.7
20260831085824 73 360 5.0 8.0 0.00 0.28 0.28 87 1010.7
20260831085333 73 360 4.0 6.0 0.00 0.28 0.28 87 1010.7
20260831084843 73 360 4.0 6.0 0.00 0.28 0.28 87 1010.8
20260831084332 73 360 3.0 6.0 0.00 0.28 0.28 87 1010.8
20260831083838 73 360 4.0 6.0 0.00 0.28 0.28 87 1010.8
20260831083328 73 360 3.0 6.0 0.00 0.28 0.28 88 1010.8
20260831082836 73 144 3.0 6.0 0.00 0.28 0.28 88 1010.9
20260831082325 73 360 3.0 6.0 0.00 0.28 0.28 88 1011.0
20260831081834 73 360 3.0 6.0 0.00 0.28 0.28 88 1011.0
20260831081324 73 150 2.0 6.0 0.00 0.28 0.28 88 1010.9
20260831080832 73 360 4.0 6.0 0.00 0.28 0.28 88 1010.9
20260831080336 73 360 3.0 5.0 0.00 0.28 0.28 88 1011.0
20260831075826 74 360 3.0 5.0 0.00 0.28 0.28 87 1010.9
20260831075334 74 360 3.0 5.0 0.00 0.28 0.28 87 1011.0
20260831074824 74 360 3.0 5.0 0.00 0.29 0.28 86 1011.2
20260831074334 74 360 3.0 5.0 0.00 0.29 0.28 86 1011.2
20260831073822 74 360 4.0 5.0 0.00 0.29 0.28 86 1011.2
20260831073333 74 360 2.0 5.0 0.00 0.29 0.28 86 1011.3
20260831072822 74 360 3.0 5.0 0.00 0.29 0.28 86 1011.4
20260831072332 74 360 2.0 4.0 0.00 0.29 0.28 86 1011.4
20260831071821 74 360 1.0 4.0 0.00 0.29 0.28 86 1011.5
20260831071333 74 360 2.0 4.0 0.00 0.29 0.28 86 1011.5
20260831070822 74 360 2.0 4.0 0.00 0.29 0.28 87 1011.5
20260831070330 74 360 2.0 5.0 0.00 0.29 0.28 87 1011.5
20260831065840 74 360 2.0 5.0 0.00 0.29 0.28 87 1011.6
20260831065328 74 360 2.0 5.0 0.00 0.29 0.28 87 1011.5
20260831064838 74 360 2.0 5.0 0.00 0.29 0.28 87 1011.6
20260831064329 74 360 2.0 6.0 0.00 0.29 0.28 87 1011.6
20260831063837 74 360 3.0 6.0 0.00 0.29 0.28 87 1011.4
20260831063347 74 360 3.0 7.0 0.00 0.29 0.28 87 1011.4
20260831062834 74 360 3.0 7.0 0.00 0.29 0.28 87 1011.4
20260831062323 74 360 3.0 7.0 0.00 0.29 0.28 87 1011.4
20260831061833 74 360 4.0 7.0 0.00 0.29 0.28 87 1011.4
20260831061323 74 360 3.0 6.0 0.00 0.29 0.28 88 1011.4
20260831060854 74 360 3.0 6.0 0.00 0.29 0.28 88 1011.4
20260831060323 74 360 3.0 7.0 0.00 0.29 0.28 88 1011.4